Location: Brunsbüttel
(52.3892°N, 10.6138°E)
Time: 23:21:00
(UTC+00:00)

Okean 3 Rocket - Pass Details

Date: 19 May 2025
Orbit: 611 x 638 km, 82.5° (Epoch: 21 June)

Event Time Altitude Azimuth Distance (km) Brightness Sun altitude
Rises 21:50:24 0° 350° (N) 2,901 8.7 -15.4°
Reaches altitude 10° 21:52:39 10° 353° (N) 1,994 7.4 -15.5°
Maximum altitude 21:57:03 69° 77° (ENE) 671 3.6 -15.7°
Enters shadow 21:59:16 29° 154° (SSE) 1,159 4.4 -15.8°
